Weather History for KMKO - July, 2013

Change the Weather History Date:

Tuesday, July 9, 2013

  Actual Average (WUND) Record (WUND)
Temperature  
Mean Temperature 84 °F -  
Max Temperature 95 °F - - (-1)
Min Temperature 73 °F - - (-1)
Cooling Degree Days 19    
Growing Degree Days 34 (Base 50)    
Moisture  
Dew Point 71 °F    
Average Humidity 67    
Maximum Humidity 93    
Minimum Humidity 44    
Precipitation  
Precipitation 0.00 in - - ()
Sea Level Pressure  
Sea Level Pressure 30.01 in    
Wind  
Wind Speed 7 mph (South)    
Max Wind Speed 16 mph    
Max Gust Speed 22 mph    
Visibility 10 miles    
Events      
Averages and records for this station are not official NWS values.
T = Trace of Precipitation, MM = Missing Value Source: NWS Daily Summary

Daily Weather History Graph

Daily Weather History Graph

Search for Another Location

Airport or City:

Trip Planner

Search our weather history database for the weather conditions in past years. The results will help you decide how hot, cold, wet, or windy it might be!

Date:

Astronomy

Jul. 09, 2013 Rise Set
Actual Time 6:13 AM CDT 8:39 PM CDT
Civil Twilight 5:43 AM CDT 9:09 PM CDT
Nautical Twilight 5:07 AM CDT 9:45 PM CDT
Astronomical Twilight 4:27 AM CDT 10:25 PM CDT
Moon 7:34 AM CDT (7/9) 9:23 PM CDT (7/9)
Length of Visible Light 15h 25m
Length of Day
14h 26m
New Moon, 2% of the Moon is Illuminated
Jul 9
New Moon
Jul 15
First Quarter
Jul 22
Full
Jul 29
Last Quarter
Aug 6
New

Hourly Weather History & Observations

Time (CDT) Temp. Heat Index Dew Point Humidity Pressure Visibility Wind Dir Wind Speed Gust Speed Precip Events Conditions
12:53 AM 75.9 °F - 71.1 °F 85% 30.03 in 10.0 mi SE 5.8 mph - N/A   Clear
1:53 AM 75.0 °F - 71.1 °F 87% 30.03 in 10.0 mi SE 5.8 mph - N/A   Clear
2:53 AM 73.9 °F - 71.1 °F 91% 30.03 in 10.0 mi SE 4.6 mph - N/A   Clear
3:53 AM 75.0 °F - 71.1 °F 87% 30.03 in 10.0 mi SSE 5.8 mph - N/A   Clear
4:53 AM 73.9 °F - 71.1 °F 91% 30.04 in 10.0 mi SSE 5.8 mph - N/A   Clear
5:53 AM 73.0 °F - 71.1 °F 93% 30.03 in 10.0 mi SSE 5.8 mph - N/A   Clear
6:53 AM 73.9 °F - 70.0 °F 87% 30.04 in 10.0 mi SSE 5.8 mph - N/A   Clear
7:53 AM 79.0 °F - 71.1 °F 77% 30.06 in 10.0 mi South 6.9 mph - N/A   Clear
8:53 AM 82.9 °F 87.0 °F 70.0 °F 65% 30.07 in 10.0 mi South 10.4 mph - N/A   Clear
9:53 AM 84.9 °F 89.4 °F 70.0 °F 61% 30.06 in 10.0 mi SSW 13.8 mph - N/A   Clear
10:53 AM 87.1 °F 92.8 °F 71.1 °F 59% 30.07 in 10.0 mi SSW 11.5 mph - N/A   Unknown
11:53 AM 89.1 °F 96.0 °F 72.0 °F 57% 30.06 in 10.0 mi South 10.4 mph - N/A   Clear
12:53 PM 91.0 °F 98.2 °F 72.0 °F 53% 30.04 in 10.0 mi SSE 10.4 mph - N/A   Clear
1:53 PM 93.0 °F 100.7 °F 72.0 °F 50% 30.02 in 10.0 mi South 12.7 mph - N/A   Clear
2:53 PM 93.0 °F 100.1 °F 71.1 °F 49% 30.01 in 10.0 mi SW 16.1 mph 21.9 mph N/A   Clear
3:53 PM 93.9 °F 102.1 °F 72.0 °F 49% 29.99 in 10.0 mi SSW 8.1 mph - N/A   Clear
4:53 PM 95.0 °F 101.3 °F 70.0 °F 44% 29.98 in 10.0 mi South 10.4 mph - N/A   Partly Cloudy
5:53 PM 93.9 °F 99.1 °F 69.1 °F 44% 29.96 in 10.0 mi SSW 10.4 mph - N/A   Clear
6:53 PM 93.0 °F 99.0 °F 70.0 °F 47% 29.96 in 10.0 mi SSW 9.2 mph - N/A   Clear
7:53 PM 89.1 °F 95.0 °F 71.1 °F 55% 29.95 in 10.0 mi South 6.9 mph - N/A   Clear
8:53 PM 84.9 °F 90.1 °F 71.1 °F 63% 29.95 in 10.0 mi South 5.8 mph - N/A   Clear
9:53 PM 82.0 °F 86.3 °F 71.1 °F 69% 29.96 in 10.0 mi South 4.6 mph - N/A   Clear
10:53 PM 81.0 °F 84.4 °F 70.0 °F 69% 29.97 in 10.0 mi SSE 5.8 mph - N/A   Clear
11:53 PM 79.0 °F - 70.0 °F 74% 29.98 in 10.0 mi SSE 5.8 mph - N/A   Clear